QPF
0.01 0.00 0.00 0.00 0.00 0.00 0.00 0.00 0.00 0.00 0.00 0.01 0.00 0.01 0.01 0.01 0.01 0.02 0.02 0.02 0.02 0.02 0.03 0.03 0.02 0.02 0.02 0.01 0.01 0.02 0.03 0.04 0.03 0.02 0.01 0.00 0.01 0.01 0.01 0.01 0.01 0.00 0.00 0.00
0.01 0.00 0.00 0.00 0.00 0.00 0.00 0.00 0.01 0.00 0.01 0.01 0.00 0.00 0.01 0.01 0.01 0.02 0.02 0.02 0.02 0.02 0.03 0.03 0.02 0.03 0.02 0.01 0.01 0.03 0.04 0.05 0.05 0.05 0.03 0.01 0.01 0.01 0.00 0.00 0.00 0.01 0.01 0.00
0.00 0.00 0.00 0.00 0.00 0.00 0.00 0.00 0.00 0.00 0.00 0.00 0.00 0.01 0.01 0.01 0.01 0.01 0.01 0.01 0.02 0.02 0.03 0.02 0.01 0.02 0.02 0.01 0.01 0.01 0.03 0.03 0.03 0.05 0.07 0.05 0.02 0.01 0.01 0.01 0.01 0.01 0.01 0.00
0.01 0.00 0.00 0.00 0.00 0.00 0.00 0.00 0.00 0.00 0.00 0.00 0.00 0.01 0.02 0.01 0.01 0.01 0.01 0.01 0.01 0.01 0.01 0.01 0.01 0.01 0.01 0.01 0.01 0.01 0.03 0.03 0.02 0.03 0.04 0.05 0.07 0.06 0.03 0.02 0.01 0.01 0.01 0.01
0.01 0.01 0.00 0.00 0.00 0.00 0.00 0.00 0.00 0.00 0.00 0.01 0.00 0.00 0.01 0.01 0.01 0.01 0.01 0.01 0.01 0.00 0.01 0.01 0.01 0.00 0.01 0.01 0.01 0.01 0.02 0.02 0.02 0.02 0.03 0.02 0.04 0.07 0.06 0.02 0.01 0.01 0.01 0.01
0.01 0.01 0.01 0.00 0.00 0.00 0.00 0.00 0.00 0.00 0.00 0.01 0.01 0.00 0.01 0.02 0.02 0.01 0.01 0.01 0.00 0.00 0.00 0.01 0.01 0.01 0.02 0.02 0.02 0.01 0.01 0.02 0.02 0.03 0.04 0.03 0.03 0.04 0.04 0.02 0.01 0.01 0.01 0.00
0.00 0.00 0.00 0.01 0.01 0.00 0.00 0.00 0.01 0.01 0.02 0.02 0.01 0.01 0.01 0.02 0.02 0.01 0.01 0.01 0.01 0.00 0.00 0.01 0.01 0.01 0.02 0.02 0.02 0.01 0.01 0.01 0.01 0.02 0.03 0.03 0.03 0.03 0.04 0.04 0.03 0.02 0.01 0.00
0.01 0.00 0.00 0.00 0.00 0.00 0.00 0.00 0.01 0.01 0.02 0.02 0.03 0.02 0.01 0.01 0.01 0.01 0.01 0.00 0.00 0.00 0.00 0.00 0.01 0.01 0.02 0.02 0.02 0.01 0.01 0.01 0.02 0.03 0.04 0.04 0.04 0.04 0.04 0.04 0.04 0.04 0.03 0.01
0.01 0.01 0.00 0.00 0.00 0.00 0.00 0.00 0.01 0.01 0.01 0.01 0.02 0.02 0.03 0.02 0.01 0.01 0.01 0.01 0.00 0.00 0.00 0.00 0.01 0.01 0.03 0.04 0.02 0.02 0.02 0.02 0.02 0.03 0.05 0.06 0.06 0.05 0.03 0.04 0.05 0.06 0.04 0.03
0.01 0.00 0.00 0.00 0.00 0.00 0.00 0.01 0.01 0.02 0.02 0.02 0.02 0.02 0.01 0.02 0.01 0.01 0.01 0.01 0.01 0.00 0.00 0.00 0.00 0.01 0.02 0.03 0.02 0.03 0.02 0.02 0.02 0.02 0.04 0.06 0.07 0.06 0.05 0.05 0.06 0.08 0.08 0.05
0.00 0.01 0.00 0.00 0.00 0.00 0.00 0.01 0.01 0.02 0.04 0.05 0.03 0.03 0.02 0.02 0.01 0.01 0.01 0.00 0.00 0.00 0.01 0.01 0.01 0.02 0.03 0.03 0.02 0.02 0.01 0.01 0.01 0.02 0.02 0.03 0.06 0.07 0.08 0.07 0.07 0.08 0.08 0.09
0.00 0.01 0.01 0.00 0.01 0.00 0.00 0.01 0.01 0.02 0.04 0.04 0.03 0.03 0.03 0.03 0.02 0.01 0.01 0.00 0.00 0.01 0.01 0.01 0.01 0.03 0.03 0.03 0.03 0.03 0.01 0.01 0.01 0.01 0.01 0.02 0.03 0.05 0.07 0.08 0.08 0.09 0.11 0.12
0.00 0.01 0.01 0.01 0.01 0.01 0.01 0.01 0.01 0.02 0.02 0.02 0.02 0.03 0.03 0.03 0.02 0.02 0.02 0.01 0.01 0.02 0.01 0.01 0.01 0.01 0.01 0.02 0.03 0.03 0.03 0.02 0.01 0.01 0.02 0.02 0.03 0.04 0.05 0.05 0.06 0.07 0.08 0.09
0.01 0.01 0.00 0.00 0.01 0.01 0.01 0.01 0.01 0.01 0.02 0.02 0.02 0.02 0.03 0.02 0.01 0.01 0.01 0.02 0.02 0.01 0.01 0.01 0.01 0.01 0.01 0.02 0.02 0.03 0.03 0.03 0.03 0.03 0.03 0.02 0.02 0.04 0.05 0.05 0.05 0.07 0.08 0.09
0.00 0.01 0.00 0.00 0.00 0.01 0.01 0.02 0.02 0.02 0.01 0.01 0.01 0.02 0.02 0.02 0.01 0.01 0.01 0.01 0.01 0.01 0.01 0.01 0.01 0.01 0.01 0.01 0.01 0.02 0.03 0.03 0.03 0.04 0.03 0.02 0.02 0.02 0.04 0.05 0.05 0.04 0.04 0.07
0.00 0.00 0.00 0.01 0.00 0.00 0.01 0.01 0.02 0.02 0.02 0.01 0.01 0.02 0.02 0.02 0.01 0.01 0.01 0.01 0.01 0.01 0.01 0.02 0.02 0.02 0.01 0.01 0.01 0.01 0.01 0.02 0.02 0.03 0.02 0.02 0.02 0.02 0.03 0.04 0.06 0.06 0.04 0.04
0.00 0.00 0.00 0.01 0.00 0.00 0.01 0.01 0.02 0.02 0.02 0.02 0.02 0.02 0.03 0.03 0.02 0.02 0.01 0.01 0.00 0.00 0.01 0.02 0.02 0.02 0.01 0.01 0.01 0.01 0.02 0.02 0.02 0.02 0.01 0.01 0.01 0.01 0.02 0.04 0.07 0.08 0.06 0.04
0.02 0.01 0.01 0.01 0.01 0.01 0.02 0.01 0.01 0.02 0.02 0.02 0.02 0.02 0.02 0.02 0.03 0.03 0.03 0.02 0.01 0.00 0.00 0.01 0.01 0.01 0.01 0.01 0.01 0.01 0.02 0.02 0.02 0.01 0.01 0.01 0.01 0.01 0.01 0.02 0.04 0.07 0.06 0.05
0.01 0.01 0.01 0.01 0.02 0.02 0.02 0.02 0.01 0.01 0.02 0.02 0.01 0.01 0.01 0.02 0.03 0.03 0.03 0.02 0.01 0.00 0.00 0.00 0.01 0.01 0.01 0.01 0.01 0.01 0.01 0.02 0.02 0.01 0.01 0.01 0.01 0.00 0.00 0.01 0.01 0.04 0.05 0.03
0.01 0.01 0.01 0.02 0.02 0.03 0.04 0.03 0.03 0.02 0.03 0.02 0.01 0.01 0.01 0.02 0.03 0.03 0.02 0.02 0.01 0.00 0.00 0.00 0.00 0.01 0.02 0.01 0.01 0.02 0.02 0.02 0.02 0.02 0.02 0.02 0.01 0.01 0.00 0.00 0.01 0.03 0.05 0.04
0.01 0.01 0.01 0.01 0.02 0.03 0.02 0.02 0.03 0.05 0.05 0.02 0.01 0.01 0.02 0.02 0.02 0.02 0.02 0.01 0.01 0.01 0.00 0.01 0.01 0.01 0.02 0.02 0.02 0.03 0.03 0.03 0.03 0.03 0.04 0.03 0.02 0.01 0.01 0.01 0.01 0.03 0.04 0.04
0.01 0.01 0.01 0.01 0.02 0.03 0.01 0.01 0.03 0.05 0.04 0.03 0.01 0.01 0.01 0.02 0.01 0.01 0.01 0.01 0.01 0.02 0.02 0.01 0.01 0.02 0.02 0.02 0.02 0.02 0.02 0.02 0.03 0.03 0.03 0.04 0.04 0.03 0.02 0.01 0.01 0.02 0.03 0.03
0.00 0.01 0.01 0.01 0.02 0.02 0.01 0.01 0.02 0.02 0.03 0.03 0.02 0.01 0.01 0.01 0.01 0.01 0.01 0.01 0.01 0.01 0.02 0.01 0.01 0.01 0.01 0.02 0.02 0.01 0.01 0.01 0.01 0.01 0.02 0.02 0.03 0.03 0.02 0.02 0.02 0.02 0.04 0.04
0.00 0.00 0.01 0.01 0.02 0.01 0.01 0.01 0.01 0.01 0.02 0.02 0.02 0.01 0.01 0.01 0.01 0.01 0.00 0.00 0.00 0.00 0.00 0.00 0.01 0.01 0.01 0.01 0.02 0.02 0.01 0.01 0.01 0.01 0.01 0.01 0.01 0.02 0.02 0.02 0.02 0.03 0.04 0.05
0.00 0.01 0.01 0.01 0.01 0.01 0.01 0.01 0.01 0.01 0.01 0.02 0.02 0.01 0.01 0.01 0.01 0.01 0.01 0.00 0.00 0.00 0.00 0.00 0.00 0.01 0.02 0.03 0.04 0.04 0.03 0.02 0.01 0.01 0.01 0.01 0.01 0.01 0.01 0.02 0.02 0.02 0.03 0.04
0.01 0.01 0.02 0.02 0.01 0.01 0.01 0.01 0.00 0.01 0.01 0.01 0.01 0.01 0.01 0.01 0.01 0.01 0.01 0.01 0.01 0.01 0.01 0.01 0.01 0.02 0.03 0.03 0.03 0.03 0.03 0.03 0.02 0.01 0.01 0.01 0.01 0.01 0.01 0.01 0.02 0.02 0.02 0.03
MSLP
1013.84 1014.82 1015.60 1016.14 1016.43 1016.49 1016.38 1016.15 1015.86 1015.56 1015.27 1015.00 1014.73 1014.47 1014.18 1013.87 1013.54 1013.20 1012.87 1012.55 1012.26 1012.00 1011.78 1011.57 1011.39 1011.23 1011.10 1011.01 1011.00 1011.08 1011.27 1011.57 1011.98 1012.46 1012.96 1013.45 1013.88 1014.20 1014.39 1014.46 1014.44 1014.37 1014.28 1014.25
1014.47 1015.27 1015.87 1016.23 1016.39 1016.39 1016.29 1016.16 1016.04 1015.96 1015.91 1015.87 1015.80 1015.69 1015.49 1015.21 1014.86 1014.46 1014.05 1013.64 1013.25 1012.90 1012.57 1012.27 1011.97 1011.68 1011.41 1011.18 1011.03 1010.98 1011.08 1011.32 1011.70 1012.19 1012.74 1013.29 1013.78 1014.16 1014.41 1014.51 1014.50 1014.42 1014.33 1014.27
1014.79 1015.37 1015.74 1015.92 1015.96 1015.93 1015.90 1015.93 1016.06 1016.28 1016.54 1016.81 1017.02 1017.11 1017.06 1016.84 1016.49 1016.04 1015.53 1015.02 1014.52 1014.04 1013.60 1013.17 1012.75 1012.33 1011.92 1011.55 1011.26 1011.08 1011.06 1011.21 1011.53 1011.98 1012.51 1013.07 1013.58 1013.99 1014.27 1014.40 1014.42 1014.36 1014.28 1014.24
1014.85 1015.18 1015.32 1015.32 1015.27 1015.25 1015.33 1015.58 1016.01 1016.57 1017.21 1017.82 1018.33 1018.66 1018.76 1018.63 1018.28 1017.78 1017.19 1016.56 1015.93 1015.33 1014.76 1014.21 1013.68 1013.15 1012.63 1012.14 1011.73 1011.43 1011.28 1011.31 1011.51 1011.86 1012.32 1012.82 1013.29 1013.69 1013.97 1014.12 1014.17 1014.15 1014.11 1014.10
1014.75 1014.84 1014.78 1014.64 1014.53 1014.55 1014.78 1015.27 1016.01 1016.92 1017.92 1018.87 1019.67 1020.23 1020.48 1020.42 1020.08 1019.53 1018.85 1018.11 1017.36 1016.64 1015.97 1015.34 1014.72 1014.12 1013.52 1012.95 1012.44 1012.03 1011.76 1011.65 1011.70 1011.91 1012.23 1012.60 1012.98 1013.31 1013.56 1013.71 1013.78 1013.80 1013.80 1013.83
1014.62 1014.51 1014.28 1014.04 1013.92 1014.01 1014.40 1015.12 1016.14 1017.36 1018.67 1019.90 1020.94 1021.68 1022.06 1022.05 1021.71 1021.12 1020.36 1019.53 1018.69 1017.89 1017.15 1016.47 1015.82 1015.18 1014.56 1013.95 1013.38 1012.88 1012.50 1012.24 1012.13 1012.16 1012.29 1012.50 1012.73 1012.94 1013.11 1013.23 1013.29 1013.33 1013.37 1013.44
1014.56 1014.30 1013.97 1013.69 1013.59 1013.77 1014.31 1015.22 1016.46 1017.91 1019.43 1020.86 1022.06 1022.91 1023.36 1023.38 1023.04 1022.41 1021.61 1020.72 1019.84 1019.00 1018.24 1017.55 1016.91 1016.29 1015.69 1015.08 1014.49 1013.94 1013.46 1013.07 1012.79 1012.63 1012.56 1012.56 1012.61 1012.68 1012.73 1012.77 1012.80 1012.84 1012.89 1012.98
1014.61 1014.29 1013.93 1013.66 1013.61 1013.89 1014.54 1015.59 1016.96 1018.53 1020.15 1021.67 1022.92 1023.81 1024.28 1024.31 1023.96 1023.33 1022.52 1021.63 1020.75 1019.93 1019.19 1018.54 1017.95 1017.39 1016.83 1016.27 1015.69 1015.12 1014.57 1014.08 1013.65 1013.31 1013.04 1012.84 1012.70 1012.59 1012.51 1012.45 1012.41 1012.40 1012.43 1012.51
1014.80 1014.48 1014.16 1013.95 1013.98 1014.34 1015.08 1016.18 1017.59 1019.17 1020.78 1022.26 1023.48 1024.34 1024.78 1024.80 1024.46 1023.86 1023.08 1022.24 1021.42 1020.66 1019.99 1019.42 1018.90 1018.41 1017.92 1017.41 1016.87 1016.31 1015.73 1015.17 1014.63 1014.15 1013.71 1013.34 1013.01 1012.73 1012.51 1012.32 1012.18 1012.10 1012.07 1012.10
1015.09 1014.84 1014.61 1014.51 1014.63 1015.07 1015.84 1016.93 1018.28 1019.77 1021.26 1022.61 1023.72 1024.48 1024.87 1024.88 1024.57 1024.03 1023.34 1022.60 1021.87 1021.21 1020.64 1020.15 1019.72 1019.31 1018.89 1018.44 1017.94 1017.40 1016.83 1016.23 1015.64 1015.06 1014.51 1014.00 1013.53 1013.10 1012.74 1012.42 1012.17 1011.98 1011.86 1011.81
1015.43 1015.30 1015.21 1015.24 1015.47 1015.96 1016.72 1017.75 1018.97 1020.28 1021.57 1022.73 1023.67 1024.31 1024.63 1024.64 1024.38 1023.94 1023.37 1022.76 1022.17 1021.63 1021.16 1020.75 1020.38 1020.03 1019.66 1019.26 1018.81 1018.31 1017.76 1017.17 1016.56 1015.95 1015.34 1014.75 1014.18 1013.65 1013.17 1012.74 1012.38 1012.08 1011.85 1011.69
1015.80 1015.82 1015.88 1016.05 1016.38 1016.91 1017.64 1018.56 1019.60 1020.69 1021.75 1022.68 1023.42 1023.93 1024.20 1024.21 1024.03 1023.70 1023.28 1022.83 1022.38 1021.96 1021.57 1021.23 1020.90 1020.57 1020.23 1019.85 1019.43 1018.97 1018.46 1017.91 1017.33 1016.73 1016.12 1015.50 1014.89 1014.30 1013.73 1013.21 1012.74 1012.33 1011.99 1011.71
1016.17 1016.35 1016.57 1016.88 1017.30 1017.85 1018.53 1019.32 1020.17 1021.03 1021.84 1022.54 1023.10 1023.48 1023.70 1023.74 1023.65 1023.45 1023.18 1022.88 1022.56 1022.24 1021.93 1021.61 1021.29 1020.96 1020.60 1020.22 1019.82 1019.38 1018.92 1018.42 1017.90 1017.35 1016.78 1016.18 1015.56 1014.94 1014.33 1013.74 1013.19 1012.69 1012.24 1011.86
1016.57 1016.89 1017.26 1017.68 1018.18 1018.74 1019.36 1020.02 1020.68 1021.32 1021.90 1022.40 1022.80 1023.08 1023.26 1023.34 1023.34 1023.27 1023.15 1022.98 1022.77 1022.53 1022.25 1021.94 1021.59 1021.22 1020.83 1020.42 1020.01 1019.59 1019.17 1018.73 1018.27 1017.79 1017.27 1016.71 1016.12 1015.51 1014.88 1014.25 1013.64 1013.06 1012.54 1012.07
1017.02 1017.46 1017.94 1018.45 1019.00 1019.56 1020.12 1020.66 1021.16 1021.61 1022.01 1022.34 1022.61 1022.82 1022.98 1023.10 1023.18 1023.22 1023.21 1023.15 1023.02 1022.83 1022.56 1022.22 1021.84 1021.41 1020.97 1020.52 1020.09 1019.68 1019.28 1018.89 1018.49 1018.07 1017.61 1017.10 1016.54 1015.94 1015.31 1014.66 1014.02 1013.40 1012.82 1012.29
1017.53 1018.05 1018.60 1019.17 1019.74 1020.28 1020.79 1021.23 1021.61 1021.92 1022.18 1022.40 1022.58 1022.74 1022.90 1023.06 1023.20 1023.32 1023.40 1023.40 1023.32 1023.14 1022.87 1022.50 1022.06 1021.58 1021.09 1020.60 1020.15 1019.73 1019.35 1018.98 1018.62 1018.24 1017.82 1017.35 1016.81 1016.23 1015.60 1014.95 1014.29 1013.65 1013.04 1012.47
1018.12 1018.67 1019.24 1019.82 1020.39 1020.91 1021.36 1021.73 1022.03 1022.25 1022.43 1022.57 1022.71 1022.85 1023.02 1023.20 1023.39 1023.55 1023.67 1023.71 1023.64 1023.47 1023.17 1022.78 1022.30 1021.78 1021.25 1020.73 1020.26 1019.83 1019.44 1019.09 1018.74 1018.37 1017.97 1017.50 1016.98 1016.39 1015.76 1015.11 1014.44 1013.79 1013.17 1012.59
1018.75 1019.28 1019.84 1020.39 1020.92 1021.40 1021.81 1022.14 1022.39 1022.58 1022.72 1022.84 1022.96 1023.11 1023.29 1023.48 1023.68 1023.86 1023.99 1024.03 1023.97 1023.78 1023.47 1023.06 1022.56 1022.03 1021.48 1020.96 1020.47 1020.03 1019.64 1019.27 1018.91 1018.53 1018.10 1017.62 1017.07 1016.47 1015.83 1015.16 1014.49 1013.84 1013.21 1012.63
1019.37 1019.85 1020.35 1020.85 1021.32 1021.76 1022.13 1022.43 1022.67 1022.86 1023.01 1023.15 1023.29 1023.45 1023.64 1023.84 1024.04 1024.21 1024.32 1024.34 1024.26 1024.06 1023.74 1023.33 1022.85 1022.32 1021.79 1021.28 1020.80 1020.36 1019.95 1019.56 1019.16 1018.74 1018.26 1017.73 1017.15 1016.51 1015.83 1015.15 1014.47 1013.81 1013.19 1012.60
1019.92 1020.32 1020.74 1021.16 1021.56 1021.94 1022.28 1022.58 1022.84 1023.06 1023.25 1023.43 1023.61 1023.80 1024.00 1024.20 1024.38 1024.52 1024.60 1024.60 1024.50 1024.29 1023.98 1023.59 1023.14 1022.66 1022.17 1021.68 1021.23 1020.79 1020.37 1019.94 1019.49 1019.00 1018.47 1017.87 1017.22 1016.53 1015.82 1015.10 1014.40 1013.73 1013.10 1012.50
1020.37 1020.67 1020.98 1021.30 1021.63 1021.96 1022.28 1022.59 1022.88 1023.15 1023.41 1023.65 1023.89 1024.12 1024.33 1024.52 1024.68 1024.79 1024.83 1024.79 1024.67 1024.46 1024.18 1023.82 1023.43 1023.00 1022.57 1022.13 1021.70 1021.27 1020.83 1020.37 1019.86 1019.31 1018.70 1018.03 1017.31 1016.56 1015.80 1015.05 1014.32 1013.62 1012.96 1012.35
1020.66 1020.86 1021.07 1021.29 1021.55 1021.84 1022.14 1022.47 1022.80 1023.14 1023.47 1023.78 1024.08 1024.35 1024.58 1024.76 1024.90 1024.97 1024.98 1024.92 1024.78 1024.58 1024.33 1024.03 1023.69 1023.33 1022.96 1022.58 1022.18 1021.76 1021.30 1020.80 1020.24 1019.61 1018.93 1018.19 1017.41 1016.60 1015.79 1014.99 1014.22 1013.49 1012.80 1012.15
1020.78 1020.89 1021.00 1021.15 1021.34 1021.59 1021.89 1022.24 1022.63 1023.03 1023.43 1023.82 1024.17 1024.48 1024.73 1024.91 1025.03 1025.08 1025.06 1024.98 1024.84 1024.66 1024.44 1024.19 1023.92 1023.63 1023.32 1022.98 1022.61 1022.19 1021.72 1021.18 1020.56 1019.88 1019.14 1018.34 1017.50 1016.64 1015.79 1014.95 1014.14 1013.36 1012.62 1011.92
1020.75 1020.77 1020.81 1020.90 1021.05 1021.28 1021.59 1021.96 1022.40 1022.86 1023.32 1023.77 1024.17 1024.51 1024.78 1024.97 1025.08 1025.11 1025.08 1025.00 1024.87 1024.71 1024.53 1024.34 1024.12 1023.89 1023.62 1023.32 1022.96 1022.55 1022.05 1021.48 1020.83 1020.10 1019.31 1018.46 1017.59 1016.69 1015.80 1014.93 1014.08 1013.25 1012.45 1011.68
1020.57 1020.54 1020.53 1020.58 1020.71 1020.94 1021.26 1021.67 1022.14 1022.64 1023.16 1023.65 1024.09 1024.45 1024.74 1024.93 1025.04 1025.07 1025.05 1024.97 1024.87 1024.75 1024.61 1024.46 1024.29 1024.10 1023.87 1023.59 1023.24 1022.82 1022.31 1021.71 1021.03 1020.27 1019.45 1018.58 1017.68 1016.77 1015.86 1014.96 1014.07 1013.20 1012.34 1011.50
1020.27 1020.20 1020.18 1020.22 1020.36 1020.60 1020.95 1021.38 1021.88 1022.42 1022.96 1023.48 1023.94 1024.32 1024.62 1024.82 1024.94 1024.98 1024.98 1024.93 1024.86 1024.77 1024.68 1024.57 1024.44 1024.29 1024.08 1023.81 1023.46 1023.03 1022.50 1021.89 1021.19 1020.42 1019.59 1018.72 1017.82 1016.91 1015.99 1015.07 1014.16 1013.25 1012.34 1011.43
Thickness
5740 5724 5714 5720 5725 5725 5720 5715 5712 5720 5735 5729 5721 5721 5728 5735 5735 5732 5730 5730 5731 5733 5737 5740 5741 5741 5740 5739 5738 5736 5735 5733 5732 5729 5726 5724 5722 5722 5723 5723 5723 5722 5720 5719
5719 5715 5728 5734 5733 5728 5721 5713 5711 5720 5732 5727 5718 5719 5727 5732 5733 5734 5732 5729 5730 5730 5731 5733 5735 5735 5735 5734 5734 5733 5732 5731 5730 5728 5726 5724 5721 5720 5719 5719 5718 5718 5717 5716
5711 5722 5736 5731 5724 5719 5716 5712 5711 5713 5722 5724 5715 5708 5716 5726 5730 5732 5732 5732 5731 5730 5728 5728 5729 5729 5730 5729 5729 5730 5729 5728 5727 5726 5723 5720 5717 5715 5713 5713 5713 5714 5713 5712
5716 5727 5729 5723 5720 5718 5707 5722 5721 5716 5704 5695 5705 5682 5702 5713 5717 5722 5724 5725 5726 5728 5727 5726 5726 5725 5725 5726 5727 5727 5725 5724 5723 5722 5719 5716 5711 5708 5708 5709 5709 5709 5709 5708
5711 5722 5720 5716 5720 5722 5716 5726 5721 5715 5702 5691 5695 5682 5688 5705 5704 5711 5717 5721 5723 5724 5724 5723 5724 5724 5724 5723 5723 5722 5721 5720 5719 5718 5716 5713 5710 5708 5706 5706 5705 5705 5705 5704
5715 5726 5725 5721 5727 5727 5724 5716 5708 5698 5688 5674 5686 5678 5680 5694 5704 5710 5714 5717 5718 5719 5720 5720 5720 5720 5719 5718 5718 5717 5715 5715 5715 5714 5712 5710 5707 5705 5702 5701 5700 5700 5699 5700
5700 5712 5721 5724 5714 5716 5710 5688 5668 5665 5658 5663 5684 5678 5682 5704 5712 5712 5711 5712 5714 5714 5713 5712 5712 5712 5712 5712 5711 5711 5710 5709 5709 5708 5707 5706 5704 5702 5700 5698 5697 5695 5694 5694
5679 5683 5707 5715 5708 5700 5698 5685 5661 5651 5650 5658 5674 5670 5687 5707 5711 5713 5712 5710 5709 5707 5707 5707 5707 5707 5707 5707 5706 5706 5705 5703 5703 5703 5702 5701 5700 5698 5697 5696 5695 5693 5692 5691
5675 5679 5706 5713 5714 5705 5691 5681 5681 5663 5659 5651 5657 5671 5688 5700 5700 5701 5701 5701 5700 5700 5700 5700 5700 5701 5701 5701 5701 5700 5699 5698 5698 5697 5697 5695 5695 5693 5692 5691 5691 5690 5689 5688
5682 5674 5691 5703 5706 5702 5696 5685 5666 5656 5644 5638 5649 5658 5665 5680 5684 5689 5690 5690 5692 5694 5693 5693 5693 5693 5694 5695 5695 5695 5694 5693 5692 5691 5691 5690 5689 5688 5687 5686 5684 5685 5684 5684
5680 5667 5673 5683 5682 5679 5680 5675 5665 5651 5647 5636 5633 5648 5678 5679 5682 5682 5683 5684 5684 5685 5686 5686 5686 5686 5686 5687 5687 5687 5687 5686 5685 5684 5684 5683 5683 5682 5681 5680 5680 5679 5679 5679
5670 5657 5652 5666 5681 5687 5679 5671 5659 5643 5639 5636 5631 5644 5680 5679 5680 5678 5677 5677 5677 5677 5678 5679 5678 5678 5677 5677 5678 5679 5679 5678 5678 5678 5677 5676 5676 5675 5674 5673 5673 5674 5673 5673
5663 5648 5637 5645 5655 5667 5666 5666 5660 5648 5636 5629 5626 5639 5670 5670 5670 5671 5670 5669 5669 5669 5669 5669 5669 5669 5669 5670 5670 5671 5672 5672 5671 5671 5670 5669 5668 5667 5667 5667 5667 5667 5667 5666
5659 5640 5634 5632 5638 5649 5651 5655 5656 5643 5627 5625 5630 5638 5651 5656 5657 5660 5661 5662 5663 5662 5662 5661 5660 5660 5661 5662 5663 5664 5664 5665 5665 5664 5662 5661 5661 5661 5660 5660 5660 5660 5660 5660
5646 5633 5636 5640 5646 5648 5647 5647 5648 5641 5634 5627 5632 5636 5642 5645 5648 5652 5654 5655 5655 5655 5655 5655 5653 5653 5653 5654 5655 5656 5656 5657 5657 5656 5655 5654 5654 5654 5654 5653 5652 5653 5652 5652
5634 5627 5629 5630 5639 5639 5636 5639 5640 5637 5635 5631 5631 5631 5640 5642 5642 5643 5645 5646 5645 5646 5648 5648 5648 5647 5647 5647 5647 5648 5648 5649 5649 5648 5648 5648 5647 5646 5646 5646 5645 5644 5644 5643
5620 5618 5614 5611 5624 5626 5617 5628 5631 5629 5630 5627 5620 5624 5631 5632 5633 5634 5636 5638 5638 5639 5640 5640 5640 5640 5639 5640 5641 5640 5642 5642 5642 5641 5640 5640 5640 5639 5638 5638 5637 5636 5635 5635
5615 5608 5600 5600 5608 5599 5614 5629 5630 5624 5622 5623 5623 5623 5625 5626 5627 5628 5629 5629 5629 5631 5632 5632 5633 5633 5633 5634 5634 5634 5634 5634 5634 5633 5632 5632 5632 5631 5630 5629 5628 5627 5627 5627
5615 5605 5592 5587 5587 5594 5610 5619 5620 5615 5609 5615 5614 5615 5617 5618 5618 5615 5619 5621 5621 5623 5624 5625 5626 5626 5626 5626 5626 5626 5626 5625 5625 5625 5625 5625 5624 5624 5622 5621 5620 5620 5619 5619
5606 5600 5588 5581 5581 5582 5598 5613 5618 5610 5597 5607 5608 5606 5607 5607 5596 5600 5609 5610 5611 5613 5615 5617 5618 5617 5616 5616 5617 5617 5617 5616 5617 5618 5618 5618 5617 5616 5615 5614 5613 5612 5612 5612
5589 5584 5577 5573 5573 5580 5595 5604 5608 5589 5588 5598 5599 5599 5598 5595 5593 5596 5600 5601 5602 5604 5605 5607 5607 5606 5606 5607 5608 5607 5607 5607 5609 5610 5610 5609 5609 5608 5608 5606 5605 5604 5603 5603
5577 5571 5568 5565 5564 5571 5592 5593 5586 5583 5589 5590 5591 5591 5589 5588 5589 5590 5590 5591 5592 5593 5594 5595 5595 5595 5595 5596 5596 5595 5596 5598 5599 5599 5599 5599 5599 5600 5600 5597 5596 5595 5594 5593
5572 5573 5569 5567 5569 5578 5583 5583 5585 5584 5582 5583 5583 5583 5583 5581 5580 5580 5580 5580 5581 5582 5583 5584 5583 5583 5583 5583 5584 5583 5585 5587 5588 5588 5588 5588 5589 5589 5590 5588 5587 5585 5585 5584
5567 5571 5566 5564 5568 5572 5575 5576 5578 5578 5577 5578 5577 5576 5575 5573 5572 5570 5570 5570 5570 5571 5572 5572 5572 5571 5570 5570 5571 5572 5574 5576 5577 5577 5577 5578 5579 5579 5579 5579 5578 5577 5576 5576
5559 5560 5556 5555 5559 5562 5566 5567 5568 5570 5570 5570 5568 5567 5566 5565 5564 5562 5561 5561 5561 5560 5560 5561 5560 5559 5559 5559 5559 5561 5562 5564 5564 5565 5567 5568 5569 5569 5569 5570 5569 5570 5570 5571
5550 5550 5548 5548 5553 5551 5555 5560 5561 5560 5560 5560 5559 5557 5556 5555 5554 5554 5552 5551 5551 5550 5550 5550 5548 5547 5547 5548 5548 5549 5551 5552 5553 5553 5554 5556 5557 5558 5558 5559 5560 5561 5562 5563